Home > Weather > Faridabad > Past weeks

Flag for India Past Weather in Faridabad, Haryana, India — Yesterday and Last 2 Weeks

Now
84 °F

Fog.


Feels Like: 94 °F
Forecast: 87 / 100 °F
Wind: 5 mph from East

Location: New Delhi Palam Airport

Current Time: Jun 29, 2016 at 7:26:05 AM

Latest Report: Jun 29, 2016 at 7:00 AM


Visibility: 2 mi

Pressure: 29.65 "Hg

Humidity: 79%

Dew Point: 77 °F

Location of FaridabadLocation

Past Weather in Faridabad — Graph

°F

Faridabad Temperature Yesterday

Maximum temperature yesterday: 95 °F (at 2:00 PM)
Minimum temperature yesterday: 79 °F (at 2:00 AM)
Average temperature yesterday: 87 °F

High & Low Weather Summary for the Past Weeks

 TemperatureHumidityPressure
High104 °F (Jun 15, 3:30 PM)94% (Jun 28, 9:30 AM)29.68 "Hg (Jun 28, 9:30 AM)
Low79 °F (Jun 14, 5:30 AM)33% (Jun 17, 1:30 PM)29.39 "Hg (Jun 15, 5:00 PM)
Average92 °F59%29.56 "Hg
* Reported Jun 14 5:30 AM — Jun 29 6:00 AM, Faridabad, Weather by CustomWeather, © 2016

Note: Actual official high and low records may vary slightly from our data, if they occured in-between our weather recording intervals... More about our weather records

Advertising

Faridabad Weather History for the Previous 24 Hours

Scroll right to see more
 ConditionsComfort  
Time TempWeatherWind HumidityBarometerVisibility
6:00 AM
Wed, Jun 29
82 °FFog.5 mph84%29.65 "Hg2 mi
5:30 AM84 °FFog.5 mph79%29.65 "Hg2 mi
5:00 AM84 °FPartly cloudy.5 mph79%29.65 "Hg2 mi
4:30 AM84 °FLight rain. Partly cloudy.5 mph79%29.65 "Hg2 mi
4:00 AM84 °FLight rain. Partly cloudy.7 mph79%29.65 "Hg2 mi
3:30 AM84 °FFog.6 mph84%29.65 "Hg2 mi
3:00 AM86 °FFog.12 mph79%29.65 "Hg2 mi
2:30 AM86 °FFog.9 mph79%29.65 "Hg2 mi
2:00 AM86 °FFog.7 mph79%29.65 "Hg2 mi
1:30 AM88 °FPartly cloudy.7 mph75%29.65 "Hg2 mi
1:00 AM88 °FPartly cloudy.8 mph75%29.65 "Hg2 mi
12:30 AM88 °FPartly cloudy.6 mph75%29.65 "Hg2 mi
11:30 PM
Tue, Jun 28
88 °FPassing clouds.5 mph75%29.62 "Hg2 mi
11:00 PM88 °FPassing clouds.6 mph75%29.62 "Hg2 mi
10:30 PM88 °FPassing clouds.6 mph75%29.62 "Hg2 mi
10:00 PM88 °FPassing clouds.5 mph75%29.62 "Hg2 mi
9:30 PM90 °FPassing clouds.5 mph71%29.62 "Hg2 mi
9:00 PM90 °FPassing clouds.7 mph71%29.59 "Hg2 mi
8:30 PM91 °FPassing clouds.7 mph67%29.56 "Hg2 mi
8:00 PM91 °FPassing clouds.7 mph63%29.56 "Hg2 mi
7:30 PM91 °FScattered clouds.10 mph63%29.53 "Hg2 mi
7:00 PM93 °FScattered clouds.10 mph59%29.53 "Hg2 mi
6:30 PM93 °FScattered clouds.9 mph59%29.53 "Hg2 mi
5:30 PM95 °FScattered clouds.6 mph56%29.56 "Hg2 mi
5:00 PM95 °FScattered clouds.6 mph56%29.56 "Hg1 mi
4:30 PM95 °FBroken clouds.3 mph60%29.56 "Hg1 mi
4:00 PM95 °FBroken clouds.5 mph60%29.56 "Hg1 mi
3:30 PM95 °FBroken clouds.7 mph60%29.59 "Hg1 mi
3:00 PM95 °FBroken clouds.9 mph60%29.62 "Hg1 mi
2:30 PM95 °FBroken clouds.9 mph60%29.62 "Hg1 mi
2:00 PM95 °FBroken clouds.9 mph60%29.62 "Hg1 mi
1:30 PM91 °FFog.5 mph67%29.62 "Hg1 mi
1:00 PM90 °FFog.5 mph71%29.65 "Hg1 mi
12:30 PM88 °FFog.7 mph75%29.65 "Hg1 mi
12:00 PM84 °FFog.5 mph84%29.65 "Hg1 mi
11:30 AM84 °FFog.No wind84%29.68 "Hg1 mi
11:00 AM82 °FFog.No wind89%29.68 "Hg1 mi
10:30 AM81 °FThunderstorms. More clouds than sun.5 mph94%29.68 "Hg1 mi
10:00 AM81 °FThunderstorms. More clouds than sun.5 mph94%29.68 "Hg1 mi
9:30 AM81 °FThunderstorms. More clouds than sun.5 mph94%29.65 "Hg1 mi
9:00 AM82 °FThunderstorms. More clouds than sun.5 mph89%29.65 "Hg1 mi
8:30 AM82 °FThunderstorms. More clouds than sun.No wind89%29.65 "Hg1 mi
8:00 AM82 °FThundershowers. More clouds than sun.No wind89%29.65 "Hg1 mi
7:30 AM82 °FThundershowers. More clouds than sun.No wind89%29.65 "Hg1 mi
7:00 AM82 °FThunderstorms. More clouds than sun.No wind89%29.62 "Hg1 mi
Weather by CustomWeather, © 2016

See weather overviewHow to use our weather pages